Location: Schommer Observatory
(40.5200°N, 74.4500°W)
Time: 04:54:41
(UTC-04:00)

Tiangong 2 - Pass Details

Date: 23 May 2018
Orbit: 382 x 385 km, 42.8° (Epoch: 23 May)

Event Time Altitude Azimuth Distance (km) Brightness Sun altitude
Rises 22:42:00 0° 270° (W) 2,248 5.4 -21.4°
Reaches altitude 10° 22:44:06 10° 275° (W) 1,396 4.4 -21.6°
Enters shadow 22:46:40 47° 312° (NW) 512 2.0 -21.9°
